Погода Пудино

Погода Пудино : погода сейчас, прогноз погоды и архив. Всё, что Вы хотите узнать о погоде Пудино!

Хотите узнать прогноз погоды Пудино? Тогда Вам сюда: Погода Пудино

Поиск расширенной информации на нашем сайте:

Другие новости

Новости СМИ2

Главная страница сайта

Новости сайта

03.07.2017

Напоминаем, что на нашем специализированном сайте Метеоцентр.Азия вы можете получить высокодетализированные автоматические прогнозы погоды по пунктам России, СНГ и мира в авиационном формате (включающие направление и скорость ветра, видимость, явления погоды, количество и форму облачности, нижнюю и верхнюю границу облачности).


Погода Пудино - сегодня

Время (UTC), дата Ветер
(°,м/с) 
Видим.   Явления Облачность Т
(°С)
Тd
(°С)
f(%) Тe
(°С)
Pmin
(гПа)
dP
(гПа)
Po
(мм)
O2
(г/м3)
Тmin Tmax R s Состояние
почвы
06 18.04.18 280 (З) 20000 м    3/0 
[Cu hum]
-4.5 -15.8 41 -8  1023.1  0.7  758  312           
09 18.04.18 280 (З) 3{10}  20000 м    3/3 1000 м 
[Cu hum]
-2 -15.2 36 -4  1022.5  -0.5  758  309           
12 18.04.18 300 (СЗ) 20000 м    3/3 1000 м 
[Cu hum]
-1.9 -14.3 38 -3  1022  -0.5  757  308    -1.4       
15 18.04.18 тихо ()   20000 м    ясно 
-5.9 -13.2 56 -6  1022.3  0.1  757  313           
18 18.04.18 тихо ()   20000 м    ясно 
-10.7 -13.1 82 -11  1022.2  -0.3  757  319           
21 18.04.18 тихо ()   20000 м    ясно 
-13.6 -15.1 88 -14  1021.8  -0.6  757  322           
00 19.04.18 210 (ЮЗ) 20000 м    3/0 средняя 
[Ac lent]
-13.5 -15.3 86 -13  1021.2  -0.5  756  322  -14.5      21  равномерный
сухой снег
100% 
03 19.04.18 200 (Ю) 20000 м    1/0 верхняя 
[Ci sp]
-2.8 -12.7 46 -5  1019.6  -1.1  755  309           
06 19.04.18 220 (ЮЗ) 20000 м    8/0 средняя, верхняя 
[As trans|Ci sp]
+1.4 -13.7 31 1017.7  -1.7  754  303           
09 19.04.18 230 (ЮЗ) 20000 м    8/0 верхняя 
[Cs]
+2.5 -13.1 31 1015.9  -1.7  753  302           
12 19.04.18 230 (ЮЗ) 20000 м    6/0 средняя, верхняя 
[As trans|Ci fib]
+2.3 -13.7 30 1014.7  -1.3  752  302    +2.9       
15 19.04.18 190 (Ю) 20000 м    8/0 средняя, верхняя 
[As trans|Ci fib]
-0.7 -12.7 40 -2  1014.7  752  305           
18 19.04.18 180 (Ю) 20000 м    4/0 средняя, верхняя 
[As trans|Ci fib]
-2.3 -11.6 49 -3  1014.3  -0.5  752  306           
21 19.04.18 180 (Ю) 20000 м    1/0 средняя 
[Ac As]
-3.4 -10.3 59 -6  1013.3  -1.1  751  307           
00 20.04.18 180 (Ю) 20000 м    10/1 1000 м средняя, верхняя 
[Sc|Ac As|Cs]
-3.2 -9.5 62 -5  1012.3  -1  750  307  -3.6      21  равномерный
мокрый или
старый снег
100% 
03 20.04.18 180 (Ю) 20000 м    10/0 средняя, верхняя 
[Ac As|Cs]
+1.4 -6.1 57 -2  1011.2  -0.8  749  301           
12 20.04.18 180 (Ю) 9-17{17}  10 км  слаб. ливневой дождь  10/8 600 м кучево-дожд., средняя 
[Cb cap|As op]
+5.4 -5.5 45 +2  1008.1  -1.2  747  296    +6.8  0.0     
18 20.04.18 170 (Ю) 10 км  слаб. ливневой дождь  10/10 300 м кучево-дожд. 
[Cb cap]
+4.4 +3.2 92 +2  1004.1  -1.8  744  295           
00 21.04.18 180 (Ю) 4{10}  10 км  слаб. ливневой дождь  10/10 300 м кучево-дожд. 
[Cb cap]
+5.4 +4 91 +4  1002.3  -0.5  743  293  +3.4    14  равномерный
мокрый или
старый снег
100% 
03 21.04.18 180 (Ю) 10 км  слаб. ливневой дождь  10/4 600 м кучево-дожд. 
[Cb cap]
+5.8 +3.7 86 +4  1002.6  0.3  743  293           
12 21.04.18 170 (Ю) 4{17}  20000 м  {ливн. осадки}  10/3 600 м средняя 
[Sc|Ac trans]
+9.4 +3.2 65 +8  1001.9  0.4  743  289    +12.5  0.8     
15 21.04.18 170 (Ю) 5{11}  20000 м    10/6 600 м средняя 
[Sc|Ac As]
+9.1 +2.9 65 +8  1001.4  -0.6  742  289           
21 21.04.18 150 (ЮВ) 20000 м  в посл. час ливневой дождь  10/10 600 м 
[Sc]
+6.8 +2.8 76 +7  1000  -0.8  741  291           
00 22.04.18 тихо ()   20000 м  {ливн. осадки}  10/3 600 м средняя, верхняя 
[Sc|Ac trans|Ci fib]
+3.1 +1.5 89 +3  997.8  -2.3  739  294  +2.6    0.5  мокрый или
старый снег
10-40% 
06 22.04.18 310 (СЗ) 1000 м  ливневой снег  10/8 300 м кучево-дожд., средняя 
[Cb cap|As trans]
-2.1 -3.3 91 -4  1003  3.8  743  302           
Время (UTC), дата Ветер
(°,м/с) 
Видим.   Явления Облачность Т
(°С)
Тd
(°С)
f(%) Тe
(°С)
Pmin
(гПа)
dP
(гПа)
Po
(мм)
O2
(г/м3)
Тmin Tmax R s Состояние
почвы

Для получения пояснительной информации подведите курсор к названию столбца.

ПОГОДА Пудино - архив

Всё, что Вы хотите узнать о погоде Пудино - удобно и подробно!

Выберите нужную дату (начиная с 1 января 2015* года) и нажмите кнопку "Найти".
Будут отображены архивные сводки погоды по пункту Пудино, начиная с указанной даты.


Отображать данные в формате CSV (для использования в таблицах Excel)


Внимание! Наш архив погоды предназначен исключительно для личного некоммерческого использования в познавательных целях. Если Вам необходимы официальные справки о состоянии погоды (для производственных, юридических, коммерческих и т.п. целей), обращайтесь в органы Росгидромета.

*Примечание: данная дата относится к архиву по метеостанциям СССР (Россия, СНГ, Балтия).
Архив по метеостанциям Зарубежной Европы и Азии (кроме Китая) хранится 10 дней, по другим регионам земного шара (Китай, Африка, Америка, Австралия, Океания) - 1 день.

Пудино - район местоположения метеостанции


Название, широта, долгота, высота метеостанции:
Пудино 57.5°ш. 79.4°д. 97 м над ур. моря [Российская Федерация]

Дополнительная информация

В oтличие oт бoльшинства пoгoдных сайтoв мы публикуем пoдрoбную метеoинфoрмацию в детальнoм прoфессиoнальнoм фoрмате.

Характеристики температуры и влажнoсти вoздуха измеряются на высoте 2 м в тени вдали oт зданий и деревьев.
Скoрoсть ветра измеряется на высoте 10 м (на урoвне рoста челoвека скoрoсть ветра ниже в 1.5-2 раза). Если метеoстанция нахoдится в гoрoде или в лесу, тo скoрoсть ветра занижена на 2-4 м/с пo сравнению с oткрытым местoм. Скoрoсть ветра над акватoриями крупных рек и oзёр, а также на вершинах хoлмoв на 2-5 м/с выше, чем в oбычных услoвиях.
Атмoсфернoе давление в разных тoчках местнoсти мoжет значительнo oтличаться oт давления на метеoстанции, в зависимoсти oт услoвий рельефа (при пoдъёме на 10 м давление пoнижается примернo на 1 мм рт.ст.).